Regional Weather Roundup
Issued by NWS Sioux Falls, SD

Home | Current Version | Previous Version | Text Only | Print | Product List | Glossary On
Versions: 1 2 3 4 5 6 7 8 9 10 11 12 13 14 15 16 17 18 19 20 21 22 23 24 25 26 27 28 29 30 31 32 33 34 35 36 37 38 39 40 41 42 43 44 45 46 47 48 49 50
000
ASUS43 KFSD 180410
RWRFSD

WEATHER ROUNDUP FOR SE SOUTH DAKOTA/SW MINNESOTA/NW IOWA
NATIONAL WEATHER SERVICE SIOUX FALLS SD
1100 PM CDT TUE OCT 17 2017

NOTE: "FAIR" INDICATES FEW OR NO CLOUDS BELOW 12,000 FEET WITH NO
SIGNIFICANT WEATHER AND OR OBSTRUCTIONS TO VISIBILITY.


SDZ038>040-050-052>070-180500-
SOUTHEAST SOUTH DAKOTA

CITY           SKY/WX    TMP DP  RH WIND       PRES   REMARKS
BROOKINGS      CLEAR     57  42  57 S12       29.88S
CHAMBERLAIN    CLEAR     58  40  49 CALM      29.81F
HURON          CLEAR     58  41  53 S10       29.80F
MADISON        FAIR      55  41  58 S10       29.89F
MITCHELL       CLEAR     60  40  47 S14       29.84F
SIOUX FALLS    CLEAR     60  47  61 S13       29.90F
WINNER         FAIR      59  33  37 S14       29.82F
YANKTON        CLEAR     60  44  55 S10       29.90F
$$

MNZ071-072-080-081-089-090-097-098-180500-
SOUTHWEST MINNESOTA

CITY           SKY/WX    TMP DP  RH WIND       PRES   REMARKS
JACKSON        CLEAR     52  43  71 S8        29.95F
LUVERNE        CLEAR     50  41  71 S6        29.93S
MARSHALL       CLEAR     60  43  53 SW15      29.87S
MONTEVIDEO     CLEAR     55  41  58 SW6       29.85F
PIPESTONE      CLEAR     57  45  62 S9        29.91S
REDWOOD FALLS  CLEAR     57  39  51 S13       29.88F
TRACY          CLEAR     61  46  56 SW20G25   29.89F
WORTHINGTON    CLEAR     57  44  62 S13       29.94F
$$

IAZ001>003-012>014-020>022-031-032-NEZ013-014-SDZ071-180500-
NORTHWEST IOWA

CITY           SKY/WX    TMP DP  RH WIND       PRES   REMARKS
CHEROKEE       CLEAR     49  46  87 S3        29.97S
DENISON        CLEAR     57  45  62 S12       30.00F
ESTHERVILLE    CLEAR     48  45  89 S8        29.96S
LE MARS        CLEAR     52  46  82 S7        29.95F
ORANGE CITY    CLEAR     55  48  76 S3        29.95S
SHELDON        CLEAR     54  45  71 S6        29.94S
SIOUX CITY     CLEAR     47  44  90 E6        29.96S
SPENCER        CLEAR     51  44  77 S7        29.96F
STORM LAKE     CLEAR     50  45  81 S8        29.98S
$$

ABBREVIATIONS USED IN REMARKS
   TC - TEMPERATURE IN CELSIUS
  WCI - WIND CHILL INDEX
   HX - HEAT INDEX
  VSB - VISIBILITY





USA.gov is the U.S. government's official web portal to all federal, state and local government web resources and services.